IR4UCA Weather Reports


time (UTC)temp
F
wind
direction
speed
knots
gust
knots
rain 1hr
in
rain 24hr
in
rain mn
in
humidity
%
barometer
mb
20260506184943 66 227 5.2 10.4 0.00 0.90 0.90 57 1008.9
20260506183943 66 158 3.5 7.8 0.00 0.90 0.90 57 1008.8
20260506182943 66 176 3.5 10.4 0.00 0.90 0.90 57 1008.8
20260506181943 67 213 2.6 5.2 0.00 0.90 0.90 59 1008.6
20260506180943 67 155 1.7 7.8 0.00 0.90 0.90 59 1008.6
20260506174943 67 195 1.7 8.7 0.00 0.90 0.90 60 1008.4
20260506164943 68 226 2.6 9.6 0.00 0.90 0.90 68 1008.0
20260506163943 68 197 4.3 8.7 0.00 0.90 0.90 66 1008.0
20260506162943 68 196 3.5 6.1 0.00 0.90 0.90 67 1008.1
20260506160943 68 196 2.6 9.6 0.00 0.90 0.90 68 1008.0
20260506155944 68 178 4.3 9.6 0.00 0.90 0.90 69 1007.9
20260506154943 67 176 3.5 8.7 0.00 0.90 0.90 70 1007.8
20260506152943 67 175 3.5 5.2 0.00 0.90 0.90 72 1008.1
20260506151943 67 137 0.9 3.5 0.00 0.90 0.90 73 1008.1
20260506145946 67 127 4.3 11.3 0.00 0.90 0.90 74 1008.2
20260506144943 67 127 4.3 11.3 0.00 0.90 0.90 74 1008.2
20260506143945 67 189 0.9 8.7 0.00 0.90 0.90 74 1008.2
20260506142943 67 217 4.3 12.2 0.00 0.90 0.90 73 1008.1
20260506141943 67 252 2.6 9.6 0.00 0.90 0.90 75 1008.0
20260506140943 67 266 4.3 10.4 0.00 0.90 0.90 75 1008.2
20260506134943 67 228 3.5 14.8 0.00 0.90 0.90 73 1008.6
20260506133943 66 226 6.1 9.6 0.00 0.90 0.90 76 1008.5
20260506132944 65 203 5.2 12.2 0.00 0.90 0.90 78 1009.0
20260506131943 65 169 2.6 7.8 0.00 0.90 0.90 82 1008.8
20260506130943 65 200 2.6 8.7 0.01 0.90 0.90 84 1009.3
20260506125944 65 213 4.3 11.3 0.01 0.89 0.90 84 1009.3
20260506122945 65 188 1.7 3.5 0.02 0.89 0.90 88 1009.1
20260506121943 65 103 1.7 4.3 0.02 0.89 0.90 89 1009.0
20260506120944 65 283 0.9 8.7 0.01 0.89 0.89 88 1009.5
20260506115943 66 259 2.6 13.9 0.01 0.88 0.89 88 1009.4
20260506114944 66 212 7.0 13.9 0.01 0.88 0.88 79 1009.2
20260506112944 67 200 4.3 10.4 0.00 0.88 0.88 76 1008.9
20260506110944 67 202 4.3 12.2 0.00 0.88 0.88 75 1009.0
20260506103945 66 124 1.7 5.2 0.00 0.88 0.88 85 1009.1
20260506102944 66 66 0.9 7.8 0.00 0.88 0.88 88 1009.1
20260506101944 65 92 3.5 10.4 0.00 0.88 0.88 88 1009.3
20260506100944 65 104 3.5 7.8 0.00 0.88 0.88 90 1009.3
20260506094944 63 120 4.3 8.7 0.00 0.93 0.88 91 1009.3
20260506093946 62 62 3.5 6.1 0.01 0.94 0.88 91 1009.2
20260506084944 60 93 3.5 4.3 0.04 0.94 0.88 91 1009.5
20260506083944 59 94 0.9 6.1 0.04 0.95 0.87 91 1009.6
20260506082946 59 56 1.7 6.1 0.05 0.95 0.87 91 1009.5
20260506081944 59 106 4.3 7.8 0.06 0.95 0.86 91 1009.4
20260506080943 59 111 0.9 2.6 0.06 0.95 0.85 91 1009.3
20260506072943 59 133 1.7 7.8 0.05 0.90 0.82 91 1009.5
20260506071944 58 107 4.3 7.8 0.06 0.90 0.80 91 1009.6
20260506070943 58 110 3.5 9.6 0.07 0.91 0.80 91 1009.7
20260506060944 58 114 0.9 2.6 0.09 1.01 0.72 91 1009.9
20260506050943 58 133 5.2 9.6 0.19 0.98 0.63 91 1010.1
20260506044943 58 107 2.6 5.2 0.22 0.77 0.61 91 1010.3
20260506043943 58 93 0.0 4.3 0.21 0.77 0.59 91 1010.0
20260506042943 58 78 1.7 5.2 0.17 0.77 0.55 91 1010.2
20260505205944 62 0 0.0 1.7 0.00 0.35 0.35 89 1012.6
20260505204943 62 0 0.9 2.6 0.00 0.35 0.35 89 1012.6
20260505203943 62 0 0.9 3.5 0.00 0.35 0.35 89 1012.6
20260505202944 62 0 2.6 6.1 0.00 0.35 0.35 88 1012.6
20260505201944 63 0 2.6 4.3 0.00 0.35 0.35 88 1012.4
20260505200943 63 0 1.7 4.3 0.00 0.35 0.35 88 1012.4
20260505194943 64 0 1.7 4.3 0.00 0.35 0.35 87 1012.3
20260505193943 64 0 3.5 4.3 0.00 0.35 0.35 86 1012.1
20260505192944 65 0 1.7 4.3 0.00 0.35 0.35 85 1011.9
20260505190943 65 0 0.0 2.6 0.00 0.35 0.35 84 1011.8
20260505185944 65 0 1.7 4.3 0.00 0.35 0.35 83 1011.7